Location: Ch?enovice
(49.7164°N, 15.2160°E)
Time: 16:26:32
(UTC+00:00)

Genesis I - Pass Details

Date: 23 May 2024
Orbit: 433 x 467 km, 64.5° (Epoch: 13 June)

Event Time Altitude Azimuth Distance (km) Brightness Sun altitude
Exits shadow 02:06:19 11° 231° (SW) 1,531 4.9 -8.0°
Maximum altitude 02:09:41 63° 313° (NW) 510 3.1 -7.6°
Drops below altitude 10° 02:13:14 10° 35° (NE) 1,606 7.4 -7.2°
Sets 02:15:23 0° 39° (NE) 2,491 9.1 -6.9°
